Location: Amsterdam
(30.7274°N, 84.4357°W)
Time: 03:12:35
(UTC+00:00)

Courier 1B Rocket - Pass Details

Date: 13 February 2026
Orbit: 920 x 1201 km, 28.2° (Epoch: 13 March)

Event Time Altitude Azimuth Distance (km) Brightness Sun altitude
Rises 03:17:30 0° 252° (WSW) 3,630 8.5 -50.5°
Enters shadow 03:19:05 - 251° (WSW) 3,066 8.0 -50.8°
Reaches altitude 10° 03:20:05 10° 249° (WSW) 2,717 - -51.0°
Maximum altitude 03:26:36 64° 169° (S) 1,125 - -52.4°
Drops below altitude 10° 03:33:38 10° 90° (E) 2,922 - -53.8°
Sets 03:36:31 0° 87° (E) 3,922 - -54.4°
